[[{"header":{"parameterUnit":"m.s-1","parameterCategory":1,"la1":30.2991,"la2":30.254,"lo1":-89.0895,"lo2":-89.0444,"dy":0.0017,"dx":0.0017,"nx":28,"ny":28,"refTime":"2024-12-18T09:00:00:Z","depth":0,"parameterNumber":2,"parameterNumberName":"U-component_of_WINDS"},"data":[0,0,0,0,0,0,0,0,0,0,0,0,0,0,0,0,0,0,0,0,0,0,0,0,0,0,0,0,0,0,0,0,0,0,0,0,0,0,0,0,0,0,0,0,0,0,0,0,0,0,0,0,0,0,0,0,0,0,-1.0092,-1.0092,0,-1.0135,-1.0135,-1.0136,-1.0106,-1.0104,-1.0103,-1.0102,-1.0148,-1.015,-1.0153,0,0,0,0,0,0,0,0,0,0,0,0,0,-0.9986,-0.9988,-1.0092,-1.0092,-1.0093,-1.0134,-1.0135,-1.0136,-1.0106,-1.0104,-1.0102,-1.0101,-1.0147,-1.015,-1.0153,0,0,0,0,0,0,0,0,0,0,0,0,0,-1.0031,-0.9989,-1.0092,-1.0083,-1.0082,-1.0134,-1.0135,-1.0136,-1.0106,-1.0104,-1.0102,-1.01,-1.0146,-1.015,-1.0153,-1.0217,0,0,-1.0165,-1.0166,0,0,0,0,0,0,0,0,-1.0028,-1.0035,-1.0084,-1.0083,-1.0083,-1.0113,-1.0115,-1.0163,-1.0107,-1.0097,-1.0101,-1.0099,-1.0138,-1.0142,-1.0155,-1.0219,-1.0221,-1.0165,-1.0167,-1.0169,-1.017,0,0,0,0,0,0,0,-1.0025,-1.0033,-1.0109,-1.0084,-1.0084,-1.0077,-1.0081,-1.0124,-1.0128,-1.0098,-1.0096,-1.0101,-1.0137,-1.0151,-1.0156,-1.0222,-1.0165,-1.0168,-1.0171,-1.0172,-1.0341,-1.0343,0,0,0,0,0,0,-1.0022,-1.003,-1.0107,-1.011,-1.005,-1.0081,-1.0085,-1.0105,-1.0128,-1.0129,-1.0103,-1.01,-1.0146,-1.0151,-1.0157,-1.0234,-1.0169,-1.0172,-1.0175,-1.0339,-1.0342,-1.0344,0,0,0,0,0,0,-1.002,-1.003,-1.0106,-1.007,-1.0079,-1.0085,-1.0107,-1.0107,-1.0121,-1.0132,-1.0133,-1.0116,-1.0144,-1.0152,-1.0202,-1.0235,-1.0174,-1.0178,-1.0336,-1.034,-1.0343,-1.0388,0,0,0,0,0,0,-1.0017,-1.0029,-1.0053,-1.007,-1.0081,-1.015,-1.0109,-1.0109,-1.0127,-1.0123,-1.0144,-1.0146,-1.0143,-1.0197,-1.0206,-1.0239,-1.018,-1.0334,-1.0338,-1.0342,-1.0383,-1.0392,-1.04,0,0,0,0,0,-1.0014,-1.0064,-1.0054,-1.0064,-1.0111,-1.0152,-1.0158,-1.0153,-1.013,-1.0154,-1.0161,-1.0145,-1.023,-1.0202,-1.0212,-1.0247,-1.0332,-1.0337,-1.0342,-1.038,-1.039,-1.04,0,0,0,0,0,0,-1.0051,-1.0066,-1.0055,-1.0113,-1.0131,-1.0146,-1.0177,-1.0165,-1.0191,-1.0186,-1.018,-1.0185,-1.0238,-1.0247,-1.0217,-1.031,-1.0277,-1.0284,-1.0303,-1.0313,-1.0321,-1.0318,-1.0184,0,0,0,0,0,-1.0066,-1.0098,-1.0109,-1.0159,-1.0168,-1.0171,-1.0189,-1.0184,-1.0203,-1.0211,-1.0221,-1.0241,-1.0272,-1.0293,-1.0322,-1.0384,-1.0389,-1.0413,-1.0421,-1.0428,-1.0435,-1.0469,-1.048,-1.0361,-1.0361,-1.0361,0,0,-1.0098,-1.0109,-1.013,-1.0166,-1.018,-1.0214,-1.0178,-1.0215,-1.024,-1.0216,-1.0265,-1.0273,-1.0295,-1.0352,-1.0377,-1.0361,-1.0468,-1.0434,-1.0439,-1.0443,-1.0476,-1.0487,-1.0497,-1.0364,-1.0364,-1.0363,0,0,-1.0172,-1.0184,-1.0227,-1.0241,-1.0261,-1.0263,-1.0273,-1.029,-1.0295,-1.0343,-1.0326,-1.0356,-1.0409,-1.0426,-1.0441,-1.0521,-1.0508,-1.0531,-1.0574,-1.0608,-1.0617,-1.0626,-1.0655,-1.0666,-1.0537,-1.0537,-1.0537,0,-1.0209,-1.0258,-1.025,-1.0289,-1.0306,-1.0285,-1.0329,-1.0343,-1.0372,-1.0385,-1.0366,-1.0433,-1.0446,-1.0506,-1.0526,-1.0538,-1.0551,-1.0529,-1.0616,-1.0625,-1.0632,-1.0661,-1.0672,-1.054,-1.054,-1.0539,-1.0539,0,-1.0302,-1.0337,-1.0369,-1.0397,-1.0418,-1.0459,-1.0458,-1.048,-1.0473,-1.0476,-1.0526,-1.0541,-1.0573,-1.0586,-1.058,-1.0647,-1.0636,-1.0617,-1.0584,-1.0647,-1.0673,-1.0684,-1.0544,-1.0543,-1.0542,-1.0541,0,0,-1.0403,-1.0426,-1.0439,-1.0451,-1.0472,-1.0499,-1.0539,-1.0569,-1.0589,-1.0609,-1.0644,-1.0689,-1.0671,-1.0689,-1.0684,-1.0713,-1.0777,-1.069,-1.0691,-1.0707,-1.0852,-1.0868,-1.0881,-1.0767,-1.0769,-1.0771,-1.0851,0,-1.048,-1.0549,-1.0544,-1.061,-1.0642,-1.0622,-1.0657,-1.0674,-1.0678,-1.0707,-1.0712,-1.0744,-1.0718,-1.0728,-1.0756,-1.0763,-1.0806,-1.0757,-1.0801,-1.0802,-1.0797,-1.0894,-1.0911,-1.0986,-1.0861,-1.0863,-1.0864,0,-1.0579,-1.0603,-1.0672,-1.0688,-1.0701,-1.0733,-1.0761,-1.0787,-1.0806,-1.0807,-1.0827,-1.0817,-1.0858,-1.0822,-1.088,-1.0846,-1.0863,-1.0869,-1.0872,-1.0878,-1.0838,-1.0904,-1.101,-1.1022,-1.088,-1.0879,-1.0878,0,-1.0648,-1.0697,-1.0744,-1.0756,-1.0775,-1.0798,-1.0808,-1.0824,-1.0843,-1.0867,-1.088,-1.0908,-1.0925,-1.0947,-1.0946,-1.092,-1.1005,-1.0969,-1.1008,-1.1008,-1.1028,-1.1027,-1.114,-1.1036,-1.1036,-1.1036,-1.1036,0,-1.0735,-1.0778,-1.0775,-1.0805,-1.0853,-1.0846,-1.0894,-1.0901,-1.0916,-1.0947,-1.0932,-1.0961,-1.0957,-1.0987,-1.0985,-1.1034,-1.1041,-1.1044,-1.1043,-1.1046,-1.1046,-1.1059,-1.1054,-1.1039,-1.1038,-1.1038,-1.1037,0,-1.0821,-1.082,-1.0871,-1.0885,-1.089,-1.0925,-1.0937,-1.0966,-1.0968,-1.1008,-1.1016,-1.1021,-1.1055,-1.1055,-1.1095,-1.1094,-1.1153,-1.1146,-1.1147,-1.1146,-1.1186,-1.1183,-1.1312,-1.1329,-1.1213,-1.1214,-1.1215,0,-1.0877,-1.091,-1.0927,-1.0947,-1.0957,-1.0989,-1.1008,-1.1002,-1.1022,-1.1046,-1.1072,-1.1104,-1.113,-1.1186,-1.1194,-1.1224,-1.1218,-1.1261,-1.1223,-1.1225,-1.1221,-1.122,-1.1223,-1.127,-1.1271,-1.1272,-1.1273,0,-1.0978,-1.0976,-1.1004,-1.1031,-1.1054,-1.1075,-1.1095,-1.1112,-1.1108,-1.1132,-1.1167,-1.1187,-1.1227,-1.126,-1.1289,-1.1299,-1.1286,-1.1284,-1.1295,-1.13,-1.1299,-1.1302,-1.117,-1.1282,-1.1281,-1.128,-1.128,-1.128,-1.1052,-1.1081,-1.1097,-1.1129,-1.1142,-1.1161,-1.1189,-1.1194,-1.1223,-1.1254,-1.1249,-1.1288,-1.1306,-1.1344,-1.1356,-1.1387,-1.1372,-1.1388,-1.1392,-1.1396,-1.1402,-1.1293,-1.1392,-1.1392,-1.1392,-1.1392,-1.1391,0,-1.1154,-1.1163,-1.1192,-1.122,-1.1244,-1.1228,-1.1249,-1.1271,-1.1305,-1.1323,-1.1348,-1.1389,-1.142,-1.143,-1.1461,-1.1484,-1.1478,-1.1492,-1.1491,-1.1494,-1.1412,-1.1401,-1.1496,-1.1496,-1.1496,-1.1496,-1.1496,-1.1496,-1.121,-1.1257,-1.1257,-1.1312,-1.1321,-1.1359,-1.1372,-1.139,-1.1404,-1.1449,-1.1475,-1.148,-1.1495,-1.1526,-1.1555,-1.1557,-1.157,-1.1587,-1.1586,-1.151,-1.15,-1.149,-1.1479,-1.1589,-1.1589,-1.1666,-1.1666,-1.1667]},{"header":{"parameterUnit":"m.s-1","parameterCategory":1,"la1":30.2991,"la2":30.254,"lo1":-89.0895,"lo2":-89.0444,"dy":0.0017,"dx":0.0017,"nx":28,"ny":28,"refTime":"2024-12-18T09:00:00:Z","depth":0,"parameterNumber":3,"parameterNumberName":"V-component_of_WINDS"},"data":[0,0,0,0,0,0,0,0,0,0,0,0,0,0,0,0,0,0,0,0,0,0,0,0,0,0,0,0,0,0,0,0,0,0,0,0,0,0,0,0,0,0,0,0,0,0,0,0,0,0,0,0,0,0,0,0,0,0,-1.4414,-1.4414,0,-1.4432,-1.4433,-1.4433,-1.4414,-1.4413,-1.4413,-1.4412,-1.4429,-1.443,-1.4431,0,0,0,0,0,0,0,0,0,0,0,0,0,-1.4361,-1.4362,-1.4414,-1.4414,-1.4415,-1.4432,-1.4433,-1.4433,-1.4414,-1.4413,-1.4413,-1.4412,-1.4428,-1.443,-1.4431,0,0,0,0,0,0,0,0,0,0,0,0,0,-1.4382,-1.4363,-1.4414,-1.4408,-1.4407,-1.4432,-1.4433,-1.4433,-1.4414,-1.4413,-1.4412,-1.4411,-1.4428,-1.4429,-1.4431,-1.4463,0,0,-1.4436,-1.4437,0,0,0,0,0,0,0,0,-1.4381,-1.4384,-1.4408,-1.4408,-1.4408,-1.442,-1.442,-1.4443,-1.4415,-1.4412,-1.4412,-1.4411,-1.4427,-1.4428,-1.4434,-1.4464,-1.4464,-1.4436,-1.4437,-1.4438,-1.4439,0,0,0,0,0,0,0,-1.438,-1.4383,-1.4421,-1.4409,-1.4408,-1.4403,-1.4405,-1.4424,-1.4425,-1.4412,-1.4411,-1.4413,-1.4426,-1.4432,-1.4434,-1.4465,-1.4436,-1.4438,-1.4439,-1.444,-1.4522,-1.4523,0,0,0,0,0,0,-1.4379,-1.4382,-1.4421,-1.4422,-1.4392,-1.4405,-1.4407,-1.4417,-1.4425,-1.4425,-1.4414,-1.4412,-1.443,-1.4432,-1.4435,-1.4473,-1.4438,-1.444,-1.4441,-1.4521,-1.4522,-1.4523,0,0,0,0,0,0,-1.4378,-1.4383,-1.442,-1.4402,-1.4406,-1.4407,-1.4418,-1.4418,-1.4424,-1.4426,-1.4426,-1.442,-1.4429,-1.4432,-1.4456,-1.4473,-1.444,-1.4442,-1.4519,-1.4521,-1.4523,-1.4549,0,0,0,0,0,0,-1.4377,-1.4383,-1.4395,-1.4402,-1.4407,-1.4442,-1.442,-1.4419,-1.4427,-1.4425,-1.4432,-1.4432,-1.4429,-1.4454,-1.4458,-1.4475,-1.4443,-1.4518,-1.452,-1.4522,-1.4547,-1.4552,-1.4556,0,0,0,0,0,-1.4375,-1.4402,-1.4396,-1.4401,-1.4423,-1.4443,-1.4446,-1.4442,-1.4429,-1.4441,-1.4443,-1.4432,-1.4471,-1.4457,-1.4461,-1.4479,-1.4517,-1.4519,-1.4522,-1.4545,-1.4551,-1.4556,0,0,0,0,0,0,-1.4396,-1.4402,-1.4396,-1.4426,-1.4434,-1.444,-1.4455,-1.4448,-1.4459,-1.4457,-1.445,-1.4452,-1.4478,-1.448,-1.4465,-1.451,-1.4491,-1.4495,-1.4507,-1.4513,-1.4517,-1.4517,-1.4445,0,0,0,0,0,-1.4404,-1.442,-1.4425,-1.445,-1.4455,-1.4455,-1.4463,-1.4459,-1.4467,-1.447,-1.4473,-1.4481,-1.4495,-1.4504,-1.4517,-1.4547,-1.4548,-1.4561,-1.4566,-1.4569,-1.4573,-1.4589,-1.4595,-1.4532,-1.4532,-1.4532,0,0,-1.4421,-1.4426,-1.4437,-1.4455,-1.4461,-1.4477,-1.4458,-1.4476,-1.4488,-1.4473,-1.4496,-1.4498,-1.4506,-1.4534,-1.4546,-1.4537,-1.4591,-1.4573,-1.4576,-1.4577,-1.4593,-1.4599,-1.4604,-1.4534,-1.4534,-1.4533,0,0,-1.446,-1.4466,-1.4488,-1.4495,-1.4504,-1.4504,-1.4509,-1.4516,-1.4517,-1.4541,-1.453,-1.4543,-1.4567,-1.4574,-1.458,-1.4622,-1.4613,-1.4626,-1.465,-1.4666,-1.4671,-1.4675,-1.4691,-1.4696,-1.4629,-1.4629,-1.4629,0,-1.448,-1.4505,-1.45,-1.452,-1.4528,-1.4516,-1.4538,-1.4544,-1.4557,-1.4563,-1.4552,-1.4582,-1.4587,-1.4616,-1.4626,-1.4631,-1.4637,-1.4625,-1.4671,-1.4675,-1.4679,-1.4694,-1.4699,-1.4631,-1.4631,-1.463,-1.463,0,-1.4529,-1.4546,-1.4563,-1.4577,-1.4587,-1.4608,-1.4606,-1.4616,-1.4611,-1.4612,-1.4635,-1.464,-1.4654,-1.466,-1.4656,-1.4689,-1.4683,-1.4672,-1.4653,-1.4687,-1.47,-1.4706,-1.4633,-1.4632,-1.4632,-1.4632,0,0,-1.4582,-1.4593,-1.46,-1.4606,-1.4615,-1.4629,-1.4648,-1.4663,-1.4672,-1.4681,-1.4697,-1.4718,-1.4708,-1.4715,-1.471,-1.4725,-1.4758,-1.4711,-1.4712,-1.472,-1.4795,-1.4804,-1.4811,-1.4752,-1.4753,-1.4754,-1.4795,0,-1.4622,-1.4658,-1.4654,-1.4688,-1.4704,-1.4693,-1.471,-1.4717,-1.4718,-1.4732,-1.4732,-1.4747,-1.4732,-1.4737,-1.475,-1.4751,-1.4773,-1.4748,-1.4767,-1.4768,-1.4766,-1.4818,-1.4827,-1.4866,-1.48,-1.4801,-1.4802,0,-1.4674,-1.4686,-1.4722,-1.4729,-1.4736,-1.4751,-1.4764,-1.4777,-1.4785,-1.4785,-1.4793,-1.4786,-1.4806,-1.4786,-1.4813,-1.4796,-1.4803,-1.4805,-1.4806,-1.4809,-1.4787,-1.4822,-1.4878,-1.4884,-1.481,-1.4809,-1.4808,0,-1.471,-1.4735,-1.4759,-1.4765,-1.4774,-1.4786,-1.479,-1.4797,-1.4805,-1.4816,-1.4822,-1.4834,-1.4842,-1.4851,-1.4848,-1.4834,-1.4875,-1.4856,-1.4875,-1.4876,-1.4885,-1.4885,-1.4944,-1.4889,-1.4889,-1.4889,-1.4889,0,-1.4755,-1.4778,-1.4776,-1.4791,-1.4816,-1.4811,-1.4835,-1.4838,-1.4844,-1.4859,-1.4849,-1.4864,-1.4858,-1.4872,-1.4869,-1.4892,-1.4895,-1.4895,-1.4894,-1.4896,-1.4896,-1.4901,-1.4899,-1.489,-1.489,-1.489,-1.4889,0,-1.48,-1.48,-1.4826,-1.4833,-1.4835,-1.4853,-1.4858,-1.4872,-1.4872,-1.4892,-1.4896,-1.4896,-1.4911,-1.4909,-1.4926,-1.4924,-1.4953,-1.4948,-1.495,-1.4949,-1.497,-1.4968,-1.5035,-1.5044,-1.4982,-1.4983,-1.4983,0,-1.483,-1.4847,-1.4856,-1.4866,-1.4871,-1.4887,-1.4896,-1.4892,-1.4901,-1.4912,-1.4925,-1.494,-1.4951,-1.4977,-1.4978,-1.4991,-1.4987,-1.5009,-1.4989,-1.4991,-1.4988,-1.4987,-1.4989,-1.5014,-1.5015,-1.5015,-1.5016,0,-1.4882,-1.4881,-1.4896,-1.491,-1.4921,-1.4932,-1.4942,-1.495,-1.4946,-1.4958,-1.4974,-1.4984,-1.5001,-1.5016,-1.5028,-1.5032,-1.5023,-1.5022,-1.5027,-1.503,-1.5031,-1.5032,-1.4962,-1.5021,-1.502,-1.502,-1.5019,-1.5019,-1.4921,-1.4936,-1.4945,-1.4961,-1.4968,-1.4977,-1.4991,-1.4993,-1.5006,-1.5021,-1.5018,-1.5036,-1.5043,-1.5059,-1.5064,-1.5078,-1.5069,-1.5077,-1.5079,-1.5081,-1.5084,-1.5028,-1.508,-1.508,-1.508,-1.5079,-1.5079,0,-1.4974,-1.4979,-1.4994,-1.5008,-1.502,-1.5012,-1.5022,-1.5033,-1.505,-1.5057,-1.5069,-1.5088,-1.5103,-1.5105,-1.5119,-1.5129,-1.5126,-1.5133,-1.5133,-1.5134,-1.5091,-1.5085,-1.5136,-1.5136,-1.5136,-1.5136,-1.5136,-1.5136,-1.5003,-1.5028,-1.5028,-1.5056,-1.506,-1.5079,-1.5086,-1.5094,-1.5101,-1.5123,-1.5135,-1.5136,-1.5142,-1.5156,-1.5169,-1.5169,-1.5174,-1.5184,-1.5182,-1.5142,-1.5137,-1.5131,-1.5126,-1.5185,-1.5185,-1.5224,-1.5225,-1.5225]}]]